Location: Ambrosina
(19.9365°S, 43.9833°W)
Time: 00:04:55
(UTC+00:00)

GPS 2-14 Rocket1 - Pass Details

Date: 11 May 2021
Orbit: 474 x 538 km, 20.7° (Epoch: 20 June)

Event Time Altitude Azimuth Distance (km) Brightness Sun altitude
Rises 21:49:44 0° 264° (W) 2,530 7.5 -19.1°
Reaches altitude 10° 21:51:57 10° 264° (W) 1,644 6.3 -19.6°
Maximum altitude 21:55:45 84° 351° (N) 480 2.4 -20.5°
Enters shadow 21:56:04 73° 62° (ENE) 497 2.3 -20.6°
